This demonstration page uses our WeatherBlox Daily Observations layout. Learn more.

Left ArrowRight Arrow

34.02893, -84.19858

Hourly Observations for November 16, 2016

Temp ( °F °C ) Dew Point ( °F °C ) Humidity (%) Winds ( mph kmh ) Pressure ( in mb ) Visibility ( mi km ) Precip ( " mm )
12:53 am 00:53 Clear with Smoke 45 7.2 40 4.4 83 83 Calm 29.96 1015 10 16 0.00 0.00
1:53 am 01:53 Clear with Smoke 43 6.1 40 4.4 89 89 Calm 29.96 1015 9 14 0.00 0.00
2:53 am 02:53 Clear with Smoke 43 6.1 39 3.9 86 86 Calm 29.96 1015 8 13 0.00 0.00
3:53 am 03:53 Clear with Smoke 42 5.6 39 3.9 89 89 Calm 29.97 1015 8 13 0.00 0.00
4:53 am 04:53 Clear with Smoke 40 4.4 38 3.3 93 93 Calm 29.98 1015 8 13 0.00 0.00
5:53 am 05:53 Clear with Smoke 41 5 38 3.3 89 89 Calm 29.99 1016 7 11 0.00 0.00
6:53 am 06:53 Clear with Smoke 43 6.1 40 4.4 89 89 Calm 30.01 1016 8 13 0.00 0.00
7:53 am 07:53 Sunny with Smoke 45 7.2 42 5.6 90 90 Calm 30.02 1017 7 11 0.00 0.00
8:53 am 08:53 Sunny with Smoke 54 12.2 46 7.8 75 75 NW 3 6 30.02 1017 8 13 0.00 0.00
9:53 am 09:53 Sunny with Smoke 61 16.1 47 8.3 60 60 W 5 7 30.02 1017 8 13 0.00 0.00
10:53 am 10:53 Sunny with Smoke 66 18.9 45 7.2 47 47 N 8 13 30.01 1016 10 16 0.00 0.00
11:53 am 11:53 Sunny with Smoke 68 20 42 5.6 39 39 NW 10 17 30.01 1016 10 16 0.00 0.00
12:53 pm 12:53 Sunny with Smoke 68 20 42 5.6 39 39 W 6 9 29.99 1016 10 16 0.00 0.00
1:53 pm 13:53 Sunny with Smoke 69 20.6 41 5 36 36 WNW 9 15 29.98 1015 10 16 0.00 0.00
2:53 pm 14:53 Sunny with Smoke 70 21.1 40 4.4 34 34 W 10 17 29.96 1015 10 16 0.00 0.00
3:53 pm 15:53 Sunny with Smoke 71 21.7 32 0 24 24 WNW 10 17 29.97 1015 10 16 0.00 0.00
4:53 pm 16:53 Sunny with Smoke 69 20.6 32 0 25 25 NW 9 15 29.97 1015 10 16 0.00 0.00
5:53 pm 17:53 Clear with Smoke 62 16.7 35 1.7 37 37 WNW 3 6 29.98 1015 10 16 0.00 0.00
6:53 pm 18:53 Clear with Smoke 56 13.3 37 2.8 49 49 Calm 30.01 1016 10 16 0.00 0.00
7:53 pm 19:53 Clear with Smoke 51 10.6 37 2.8 59 59 Calm 30.03 1017 10 16 0.00 0.00
8:53 pm 20:53 Clear with Smoke 48 8.9 38 3.3 68 68 Calm 30.04 1017 10 16 0.00 0.00
9:53 pm 21:53 Clear with Smoke 48 8.9 39 3.9 71 71 Calm 30.04 1017 9 14 0.00 0.00
10:53 pm 22:53 Clear with Smoke 44 6.7 38 3.3 79 79 Calm 30.04 1017 10 16 0.00 0.00
11:53 pm 23:53 Clear with Smoke 45 7.2 38 3.3 77 77 Calm 30.04 1017 10 16 0.00 0.00

Powered by AerisWeather